Location: Hyderabad
(17.3833°N, 78.4667°E)
Time: 06:24:48
(UTC+05:30)

Daily predictions for brighter satellites

Satellite Brightness Start Highest point End
(mag) Time Altitude Azimuth Time Altitude Azimuth Time Altitude Azimuth
ASTRO E2 3.7 18:50:01 10° W 18:53:52 45° NNW 18:57:44 10° NE
Cosmos 2333 Rocket 2.4 18:50:42 10° S 18:56:11 52° ESE 19:01:39 10° NNE
Cosmos 2151 3.2 18:52:45 10° N 18:57:03 78° W 19:01:19 10° S
MOS 1 4.3 18:53:10 10° SSE 18:58:49 70° ENE 19:04:28 10° N
CZ-4 R/B 3.8 18:57:38 10° SSW 19:00:59 26° W 19:04:22 10° NW
COSMOS 2428 3.1 18:55:34 10° SSW 19:01:16 71° WNW 19:06:58 10° N
Cosmos 1743 Rocket 3.8 18:59:01 10° N 19:03:18 73° W 19:07:35 10° S
Cosmos 2219 Rocket 2.2 19:02:56 10° SSW 19:08:37 86° ESE 19:14:16 10° NNE
Cosmos 2181 Rocket 4.3 19:03:13 10° N 19:09:39 79° W 19:16:01 10° S
Cosmos 1844 Rocket 4.2 19:06:36 10° NNE 19:10:04 16° ENE 19:12:49 12° E
Cosmos 2074 Rocket 4.3 19:05:10 10° S 19:11:27 76° W 19:17:44 10° N
Cosmos 2237 Rocket 2.7 19:06:26 10° SSE 19:11:30 36° ESE 19:16:34 10° NE
ATLAS CENTAUR R/B 1.8 19:08:18 10° SW 19:11:49 55° WNW 19:15:22 10° NNE
FengYun 1-2 T 4.3 19:07:40 10° SSE 19:13:07 58° ENE 19:18:37 10° N
Cosmos 2263 Rocket 2.7 19:07:37 10° NNW 19:13:13 64° WSW 19:18:45 10° S
NOSS 3-1 (A) 4.3 19:08:15 10° NNW 19:16:35 85° WSW 19:25:18 10° SSE
Meteor 2-2 Rocket 4.4 19:12:25 10° S 19:18:01 57° E 19:23:46 10° NNE
Cosmos 1610 Rocket 4.4 19:12:37 10° S 19:18:43 76° E 19:24:50 10° N
FREGAT/IRIS 2.8 19:16:24 10° SSE 19:19:14 46° ENE 19:22:04 10° N
Cosmos 1809 Rocket 4.4 19:13:12 10° S 19:19:16 68° E 19:25:22 10° N
SJ-6B 3.9 19:17:50 13° SE 19:20:43 27° ENE 19:24:07 10° NNE
Cosmos 1269 Rocket 4.2 19:16:59 10° NNW 19:22:16 79° WSW 19:27:33 10° S
Cosmos 1805 Rocket 3.9 19:20:42 10° NNE 19:24:45 40° E 19:28:44 10° SSE
KM-V1 2.9 19:22:21 10° WSW 19:25:22 75° SSE 19:26:24 27° ENE
Resurs 01 Rocket 3.4 19:32:34 14° ENE 19:32:34 14° ENE 19:34:35 10° NE
SPOT 3 Rocket 3.9 19:27:07 10° S 19:32:16 68° WSW 19:37:24 10° NNW
Meteor 2-14 Rocket 4.4 19:28:54 10° S 19:34:54 68° E 19:40:56 10° NNE
XTE 4.4 19:36:09 10° NW 19:37:33 16° N 19:37:49 16° N
USA 267 4.0 19:33:26 10° ENE 19:38:55 29° SE 19:44:23 10° S
Stardust Del rocket 3.7 19:36:45 10° W 19:39:40 56° N 19:43:05 19° ENE
ERS-2 3.0 19:42:05 30° ENE 19:42:06 30° ENE 19:45:20 10° NNE
Thor Agena Rocket 3.6 19:38:04 10° N 19:43:21 85° WNW 19:48:39 10° SSW
Cosmos 1455 2.0 19:41:25 10° S 19:45:11 76° E 19:49:00 10° N
Meteor 2-16 Rocket 4.4 19:39:12 10° S 19:45:16 67° E 19:51:20 10° NNE
CZ-2D R/B 3.1 19:46:19 29° SSE 19:48:08 68° ENE 19:51:54 10° N
YAOGAN 6 4.0 19:53:50 24° NE 19:53:50 24° NE 19:55:46 10° NNE
In-Cosmos 22 Rocket 4.1 19:48:02 10° N 19:53:24 85° W 19:58:41 10° S
Meteor 2-15 Rocket 4.4 19:49:04 10° N 19:55:03 57° E 19:58:44 24° SSE
Nadezhda 3 Rocket 4.0 19:50:02 10° N 19:56:17 62° E 20:00:44 20° SSE
Cosmos 1151 Rocket 2.9 19:59:19 53° SE 19:59:52 58° E 20:04:02 10° NNE
SL-16 R/B 3.2 20:04:08 28° ENE 20:04:08 28° ENE 20:07:15 10° NE
Resurs 1-3 4.4 20:04:57 34° NE 20:04:57 34° NE 20:08:06 10° N
Cosmos 1666 Rocket 3.4 20:01:07 10° N 20:05:35 82° E 20:06:40 50° SSE
Cosmos 1892 2.7 20:02:18 10° N 20:05:48 67° NE 20:05:48 67° NE
Sich 1 3.3 20:09:55 10° NNW 20:14:08 65° W 20:15:25 42° SSW
Ariane H10 4.2 20:17:55 10° SW 20:18:54 12° SSW 20:18:54 12° SSW
Hubble Space Telescope 1.9 20:16:28 10° SW 20:19:01 35° SW 20:19:01 35° SW
Delta 202 4.0 20:17:00 10° W 20:25:21 88° N 20:26:40 60° E
Timation 1 Rocket 4.2 20:19:36 10° NNW 20:25:34 76° ENE 20:26:07 70° ESE
Cosmos 1371 Rocket 4.3 20:22:40 10° SSW 20:27:52 64° WNW 20:33:08 10° N
Meteor 2-3 Rocket 3.5 20:23:01 10° N 20:28:39 83° E 20:28:58 78° SE
Cosmos 1959 Rocket 4.3 20:26:57 48° S 20:28:49 81° E 20:34:58 10° N
GPS 2-17 Rocket1 4.0 20:27:46 10° WSW 20:31:04 42° SW 20:31:04 42° SW
OAO 3 Rocket 3.9 20:29:08 10° WSW 20:32:33 47° WSW 20:32:33 47° WSW
Envisat 4.5 20:32:29 16° SSW 20:35:49 34° W 20:40:23 10° NW
Cosmos 1633 Rocket 4.0 20:32:53 10° NNW 20:36:55 45° W 20:36:55 45° W
Aurora 2 Rocket 3.4 20:29:08 10° WSW 20:37:44 87° SSE 20:38:19 77° E
ATLAS 2AS CENTAUR R/B 3.3 20:35:40 10° N 20:41:59 44° NE 20:41:59 44° NE
Atlas 2A Centaur Rocket 4.3 20:38:32 10° SW 20:44:08 53° SE 21:18:27 10° ENE
Cosmos 2218 Rocket 4.3 20:45:01 37° SSW 20:47:33 66° W 20:53:52 10° N
Cosmos 2056 Rocket 4.3 20:44:02 10° SSW 20:49:15 50° WNW 20:54:30 10° N
Cosmos 1844 Rocket 3.7 20:48:41 10° NW 20:53:54 39° WSW 20:54:32 38° WSW
ATLAS 3B CENTAUR R/B 3.1 20:44:19 10° WNW 20:54:52 49° SW 20:54:52 49° SW
Cosmos 2366 rocket 4.4 20:57:32 55° WSW 20:58:16 58° W 21:04:24 10° N
Resurs 01 Rocket 4.0 21:10:08 21° WNW 21:10:08 21° WNW 21:12:09 10° NW
Cosmos 2344 3.8 21:06:00 10° SW 21:14:04 64° WNW 21:21:37 10° NNE
Cosmos 2278 Rocket 3.9 21:12:31 10° NNW 21:14:53 26° NNW 21:14:53 26° NNW
USA 267 4.0 21:15:37 10° NNE 21:21:48 47° NW 21:28:00 10° WSW
ATLAS 2A CENTAUR R/B 3.9 21:19:29 10° W 21:38:12 59° NNW 21:39:37 55° N
Centaur D-1A AC-31 4.2 22:02:01 10° WNW 22:05:49 20° WNW 22:05:49 20° WNW
